Bingham Lake, MN

1:39 AM CDT on July 29, 2016 (GMT -0500)
Windom Municipal

Weather History for KMWM - April, 2012

Change the Weather History Date:

Tuesday, April 3, 2012

  Actual Average Record
Temperature  
Mean Temperature 54 °F -  
Max Temperature 62 °F 48 °F 78 °F (1981)
Min Temperature 46 °F 27 °F 3 °F (1998)
Degree Days  
Heating Degree Days 11    
Growing Degree Days 4 (Base 50)    
Moisture  
Dew Point 36 °F    
Average Humidity 57    
Maximum Humidity 87    
Minimum Humidity 25    
Precipitation  
Precipitation 0.00 in - - ()
Sea Level Pressure  
Sea Level Pressure 29.98 in    
Wind  
Wind Speed 21 mph (North)    
Max Wind Speed 28 mph    
Max Gust Speed 37 mph    
Visibility 10 miles    
Events      
Averages and records for this station are not official NWS values.
T = Trace of Precipitation, MM = Missing Value Source: NWS Daily Summary

Daily Weather History Graph

Daily Weather History Graph

Search for Another Location

Airport or City:

Trip Planner

Search our weather history database for the weather conditions in past years. The results will help you decide how hot, cold, wet, or windy it might be!

Date:

Astronomy

Apr. 03, 2012 Rise Set
Actual Time 6:57 AM CDT 7:50 PM CDT
Civil Twilight 6:28 AM CDT 8:19 PM CDT
Nautical Twilight 5:53 AM CDT 8:54 PM CDT
Astronomical Twilight 5:17 AM CDT 9:31 PM CDT
Moon 4:29 PM CDT (4/3) 4:52 AM CDT (4/3)
Length of Visible Light 13h 51m
Length of Day
12h 53m
Waxing Gibbous, 87% of the Moon is Illuminated
Apr 3
Waxing Gibbous
Apr 6
Full
Apr 13
Last Quarter
Apr 21
New
Apr 29
First Quarter

Hourly Weather History & Observations

Time (CDT) Temp. Windchill Dew Point Humidity Pressure Visibility Wind Dir Wind Speed Gust Speed Precip Events Conditions
12:12 AM 57.2 °F - 44.6 °F 63% 29.75 in 10.0 mi NNW 23.0 mph 33.4 mph N/A   Overcast
12:32 AM 57.2 °F - 44.6 °F 63% 29.76 in 10.0 mi NNW 23.0 mph 31.1 mph N/A   Overcast
12:52 AM 53.6 °F - 42.8 °F 67% 29.78 in 10.0 mi NNW 24.2 mph 28.8 mph N/A   Overcast
1:12 AM 53.6 °F - 42.8 °F 67% 29.79 in 10.0 mi NNW 23.0 mph 31.1 mph N/A   Overcast
1:32 AM 51.8 °F - 42.8 °F 71% 29.80 in 10.0 mi NNW 21.9 mph 27.6 mph N/A   Overcast
1:52 AM 53.6 °F - 42.8 °F 67% 29.81 in 10.0 mi NNW 20.7 mph 27.6 mph N/A   Overcast
2:12 AM 51.8 °F - 42.8 °F 71% 29.82 in 10.0 mi NNW 19.6 mph 25.3 mph N/A   Overcast
2:32 AM 53.6 °F - 41.0 °F 62% 29.83 in 10.0 mi North 27.6 mph 36.8 mph N/A   Overcast
2:52 AM 51.8 °F - 41.0 °F 67% 29.85 in 10.0 mi NNW 23.0 mph 31.1 mph N/A   Overcast
3:12 AM 51.8 °F - 41.0 °F 67% 29.85 in 10.0 mi NNW 26.5 mph 34.5 mph N/A   Overcast
3:52 AM 51.8 °F - 39.2 °F 62% 29.88 in 10.0 mi North 21.9 mph 28.8 mph N/A   Mostly Cloudy
4:12 AM 51.8 °F - 41.0 °F 67% 29.88 in 10.0 mi North 20.7 mph 28.8 mph N/A   Overcast
4:52 AM 50.0 °F - 42.8 °F 76% 29.91 in 10.0 mi NNW 23.0 mph 28.8 mph N/A   Overcast
5:12 AM 50.0 °F - 42.8 °F 76% 29.93 in 10.0 mi NNW 19.6 mph 26.5 mph N/A   Overcast
5:32 AM 48.2 °F - 42.8 °F 82% 29.94 in 10.0 mi NNW 21.9 mph 27.6 mph N/A   Overcast
5:52 AM 48.2 °F - 42.8 °F 82% 29.95 in 10.0 mi NNW 19.6 mph 26.5 mph N/A   Overcast
6:12 AM 46.4 °F 38.3 °F 42.8 °F 87% 29.96 in 10.0 mi NNW 23.0 mph 28.8 mph N/A   Overcast
6:32 AM 46.4 °F 38.7 °F 42.8 °F 87% 29.97 in 10.0 mi North 20.7 mph 27.6 mph N/A   Overcast
6:52 AM 46.4 °F 38.7 °F 42.8 °F 87% 29.98 in 10.0 mi North 20.7 mph 29.9 mph N/A   Overcast
7:12 AM 46.4 °F 38.5 °F 42.8 °F 87% 29.99 in 10.0 mi North 21.9 mph 29.9 mph N/A   Overcast
7:32 AM 46.4 °F 38.1 °F 42.8 °F 87% 30.00 in 10.0 mi North 24.2 mph 28.8 mph N/A   Overcast
7:52 AM 46.4 °F 39.0 °F 41.0 °F 81% 30.02 in 10.0 mi North 19.6 mph 27.6 mph N/A   Overcast
8:12 AM 46.4 °F 37.9 °F 41.0 °F 81% 30.02 in 10.0 mi North 25.3 mph 33.4 mph N/A   Overcast
8:32 AM 46.4 °F 38.7 °F 41.0 °F 81% 30.03 in 10.0 mi North 20.7 mph 29.9 mph N/A   Overcast
8:52 AM 46.4 °F 39.2 °F 41.0 °F 81% 30.04 in 10.0 mi North 18.4 mph 25.3 mph N/A   Overcast
9:12 AM 46.4 °F 39.2 °F 39.2 °F 76% 30.05 in 10.0 mi North 18.4 mph 24.2 mph N/A   Overcast
9:32 AM 46.4 °F 38.7 °F 41.0 °F 81% 30.05 in 10.0 mi North 20.7 mph 26.5 mph N/A   Overcast
9:52 AM 46.4 °F 39.0 °F 39.2 °F 76% 30.06 in 10.0 mi North 19.6 mph 26.5 mph N/A   Overcast
10:12 AM 46.4 °F 38.1 °F 39.2 °F 76% 30.07 in 10.0 mi North 24.2 mph 28.8 mph N/A   Overcast
10:32 AM 48.2 °F - 39.2 °F 71% 30.08 in 10.0 mi North 21.9 mph 26.5 mph N/A   Overcast
10:52 AM 48.2 °F - 39.2 °F 71% 30.07 in 10.0 mi North 21.9 mph 27.6 mph N/A   Overcast
11:13 AM 48.2 °F - 39.2 °F 71% 30.07 in 10.0 mi North 20.7 mph 27.6 mph N/A   Overcast
11:32 AM 50.0 °F - 39.2 °F 66% 30.08 in 10.0 mi North 19.6 mph 24.2 mph N/A   Overcast
11:52 AM 50.0 °F - 39.2 °F 66% 30.08 in 10.0 mi NNE 20.7 mph 24.2 mph N/A   Overcast
12:13 PM 53.6 °F - 39.2 °F 58% 30.07 in 10.0 mi NNE 18.4 mph 26.5 mph N/A   Overcast
12:32 PM 53.6 °F - 39.2 °F 58% 30.07 in 10.0 mi NNE 21.9 mph 29.9 mph N/A   Overcast
12:52 PM 55.4 °F - 39.2 °F 54% 30.06 in 10.0 mi NNE 24.2 mph 31.1 mph N/A   Overcast
1:12 PM 55.4 °F - 37.4 °F 51% 30.05 in 10.0 mi NNE 21.9 mph 31.1 mph N/A   Mostly Cloudy
1:32 PM 57.2 °F - 37.4 °F 48% 30.03 in 10.0 mi NE 21.9 mph 33.4 mph N/A   Scattered Clouds
1:52 PM 57.2 °F - 35.6 °F 44% 30.04 in 10.0 mi NE 24.2 mph 35.7 mph N/A   Scattered Clouds
2:13 PM 59.0 °F - 35.6 °F 42% 30.03 in 10.0 mi NE 20.7 mph 31.1 mph N/A   Mostly Cloudy
2:32 PM 60.8 °F - 33.8 °F 36% 30.03 in 10.0 mi NNE 23.0 mph 29.9 mph N/A   Scattered Clouds
2:52 PM 60.8 °F - 30.2 °F 31% 30.02 in 10.0 mi NNE 18.4 mph 29.9 mph N/A   Scattered Clouds
3:13 PM 60.8 °F - 30.2 °F 31% 30.02 in 10.0 mi NNE 19.6 mph 28.8 mph N/A   Scattered Clouds
3:32 PM 62.6 °F - 30.2 °F 30% 30.01 in 10.0 mi NNE 17.3 mph 27.6 mph N/A   Scattered Clouds
3:52 PM 62.6 °F - 28.4 °F 27% 30.02 in 10.0 mi NNE 18.4 mph 25.3 mph N/A   Scattered Clouds
4:13 PM 62.6 °F - 26.6 °F 26% 30.02 in 10.0 mi NNE 19.6 mph 28.8 mph N/A   Mostly Cloudy
4:32 PM 62.6 °F - 26.6 °F 26% 30.02 in 10.0 mi NE 15.0 mph 23.0 mph N/A   Scattered Clouds
4:52 PM 62.6 °F - 26.6 °F 26% 30.01 in 10.0 mi NNE 18.4 mph 24.2 mph N/A   Scattered Clouds
5:12 PM 62.6 °F - 28.4 °F 27% 30.01 in 10.0 mi NNE 17.3 mph 20.7 mph N/A   Clear
5:52 PM 62.6 °F - 28.4 °F 27% 30.02 in 10.0 mi North 18.4 mph - N/A   Clear
6:13 PM 60.8 °F - 26.6 °F 27% 30.02 in 10.0 mi NNE 15.0 mph - N/A   Clear
6:32 PM 60.8 °F - 24.8 °F 25% 30.02 in 10.0 mi North 16.1 mph 21.9 mph N/A   Clear
6:52 PM 59.0 °F - 24.8 °F 27% 30.02 in 10.0 mi North 16.1 mph 20.7 mph N/A   Clear
7:52 PM 55.4 °F - 24.8 °F 31% 30.03 in 10.0 mi North 11.5 mph - N/A   Clear
8:13 PM 53.6 °F - 24.8 °F 33% 30.04 in 10.0 mi North 8.1 mph - N/A   Clear
8:32 PM 51.8 °F - 24.8 °F 35% 30.05 in 10.0 mi NNE 6.9 mph - N/A   Clear
8:52 PM 50.0 °F - 24.8 °F 37% 30.06 in 10.0 mi North 6.9 mph - N/A   Clear
9:12 PM 48.2 °F - 26.6 °F 43% 30.05 in 10.0 mi NNE 9.2 mph - N/A   Clear
9:32 PM 50.0 °F - 24.8 °F 37% 30.05 in 10.0 mi NNE 8.1 mph - N/A   Clear
9:52 PM 50.0 °F - 24.8 °F 37% 30.05 in 10.0 mi NNE 9.2 mph - N/A   Clear
10:13 PM 48.2 °F - 26.6 °F 43% 30.04 in 10.0 mi NNE 8.1 mph - N/A   Clear
10:52 PM 44.6 °F 40.2 °F 26.6 °F 49% 30.04 in 10.0 mi NNE 8.1 mph - N/A   Clear
11:13 PM 44.6 °F 39.2 °F 26.6 °F 49% 30.03 in 10.0 mi North 10.4 mph - N/A   Clear
11:32 PM 46.4 °F 42.4 °F 26.6 °F 46% 30.02 in 10.0 mi NNE 8.1 mph - N/A   Clear
11:52 PM 44.6 °F 40.7 °F 26.6 °F 49% 30.03 in 10.0 mi NNE 6.9 mph - N/A   Clear